QPF
0.03 0.04 0.04 0.05 0.05 0.06 0.07 0.06 0.05 0.06 0.05 0.06 0.06 0.05 0.04 0.03 0.02 0.01 0.01 0.02 0.02 0.04 0.05 0.04 0.04 0.03 0.03 0.02 0.03 0.02 0.02 0.03 0.03 0.02 0.02 0.03 0.03 0.03 0.04 0.05 0.06 0.05 0.03
0.04 0.05 0.05 0.05 0.05 0.06 0.09 0.10 0.11 0.10 0.11 0.10 0.09 0.06 0.03 0.03 0.03 0.02 0.01 0.01 0.01 0.03 0.04 0.03 0.02 0.02 0.02 0.02 0.02 0.02 0.02 0.02 0.02 0.01 0.02 0.02 0.03 0.03 0.03 0.04 0.04 0.04 0.03
0.05 0.06 0.06 0.05 0.05 0.06 0.06 0.09 0.12 0.13 0.12 0.11 0.08 0.06 0.04 0.02 0.03 0.04 0.04 0.03 0.02 0.02 0.02 0.01 0.01 0.02 0.02 0.01 0.01 0.02 0.04 0.03 0.02 0.02 0.01 0.01 0.02 0.03 0.04 0.04 0.05 0.05 0.04
0.05 0.06 0.08 0.10 0.10 0.10 0.11 0.09 0.10 0.11 0.10 0.08 0.07 0.06 0.05 0.04 0.04 0.04 0.04 0.04 0.03 0.03 0.01 0.01 0.01 0.01 0.01 0.01 0.01 0.01 0.02 0.02 0.02 0.02 0.02 0.02 0.02 0.03 0.04 0.04 0.06 0.05 0.05
0.06 0.07 0.09 0.13 0.16 0.13 0.13 0.12 0.11 0.11 0.10 0.07 0.06 0.06 0.06 0.05 0.04 0.04 0.03 0.04 0.03 0.03 0.02 0.01 0.01 0.01 0.01 0.01 0.01 0.01 0.01 0.01 0.02 0.02 0.02 0.02 0.02 0.03 0.03 0.03 0.05 0.07 0.06
0.06 0.06 0.06 0.06 0.06 0.05 0.06 0.07 0.07 0.08 0.08 0.08 0.07 0.05 0.04 0.04 0.03 0.03 0.04 0.04 0.04 0.03 0.02 0.02 0.02 0.02 0.01 0.01 0.01 0.01 0.01 0.01 0.01 0.02 0.01 0.01 0.01 0.01 0.02 0.03 0.03 0.04 0.04
0.04 0.04 0.04 0.04 0.03 0.03 0.03 0.03 0.03 0.04 0.05 0.06 0.06 0.06 0.04 0.04 0.05 0.04 0.04 0.04 0.03 0.03 0.03 0.03 0.02 0.02 0.02 0.02 0.02 0.02 0.01 0.01 0.01 0.01 0.01 0.01 0.01 0.01 0.01 0.02 0.02 0.02 0.02
0.04 0.04 0.03 0.03 0.03 0.02 0.02 0.01 0.02 0.02 0.03 0.03 0.03 0.04 0.05 0.05 0.06 0.06 0.06 0.05 0.04 0.04 0.03 0.02 0.02 0.02 0.02 0.03 0.02 0.02 0.02 0.02 0.01 0.01 0.01 0.01 0.01 0.02 0.02 0.01 0.02 0.02 0.02
0.04 0.03 0.03 0.03 0.02 0.01 0.01 0.01 0.01 0.02 0.02 0.02 0.03 0.04 0.04 0.05 0.05 0.05 0.05 0.06 0.05 0.05 0.06 0.05 0.03 0.02 0.02 0.03 0.03 0.02 0.02 0.02 0.01 0.01 0.01 0.01 0.01 0.01 0.01 0.02 0.02 0.02 0.01
0.04 0.03 0.03 0.03 0.02 0.02 0.01 0.01 0.01 0.02 0.03 0.03 0.04 0.05 0.05 0.04 0.04 0.03 0.03 0.03 0.03 0.04 0.05 0.05 0.05 0.05 0.04 0.03 0.03 0.02 0.02 0.02 0.02 0.01 0.01 0.01 0.01 0.01 0.01 0.02 0.02 0.02 0.02
0.05 0.03 0.03 0.03 0.02 0.02 0.02 0.02 0.03 0.04 0.04 0.05 0.06 0.05 0.04 0.03 0.03 0.03 0.02 0.02 0.02 0.03 0.03 0.03 0.04 0.04 0.04 0.04 0.04 0.03 0.03 0.03 0.03 0.02 0.01 0.01 0.01 0.01 0.01 0.02 0.02 0.03 0.02
0.07 0.04 0.02 0.02 0.02 0.03 0.03 0.04 0.04 0.05 0.05 0.05 0.05 0.04 0.04 0.03 0.02 0.02 0.02 0.02 0.02 0.02 0.02 0.02 0.04 0.04 0.05 0.05 0.05 0.04 0.04 0.04 0.03 0.02 0.02 0.02 0.02 0.02 0.02 0.02 0.03 0.04 0.04
0.07 0.05 0.03 0.02 0.02 0.03 0.04 0.03 0.03 0.03 0.03 0.04 0.04 0.03 0.04 0.03 0.02 0.01 0.01 0.02 0.02 0.02 0.02 0.02 0.03 0.04 0.05 0.05 0.05 0.05 0.04 0.03 0.02 0.02 0.02 0.02 0.02 0.02 0.02 0.01 0.02 0.03 0.07
0.04 0.04 0.03 0.03 0.03 0.03 0.03 0.03 0.02 0.02 0.03 0.04 0.05 0.04 0.03 0.03 0.02 0.01 0.01 0.01 0.01 0.01 0.02 0.02 0.02 0.03 0.04 0.04 0.05 0.04 0.04 0.04 0.03 0.02 0.02 0.01 0.01 0.01 0.01 0.01 0.01 0.03 0.05
0.05 0.04 0.03 0.03 0.03 0.03 0.04 0.04 0.04 0.03 0.03 0.04 0.05 0.04 0.03 0.03 0.02 0.01 0.01 0.01 0.01 0.02 0.02 0.02 0.02 0.03 0.03 0.03 0.03 0.03 0.03 0.03 0.03 0.03 0.02 0.02 0.01 0.01 0.02 0.02 0.03 0.04 0.05
0.07 0.06 0.06 0.05 0.04 0.03 0.03 0.04 0.05 0.05 0.05 0.05 0.06 0.05 0.03 0.03 0.02 0.01 0.01 0.01 0.01 0.02 0.02 0.01 0.02 0.02 0.02 0.02 0.02 0.03 0.03 0.03 0.02 0.02 0.02 0.02 0.02 0.02 0.02 0.02 0.04 0.04 0.03
0.08 0.09 0.06 0.05 0.04 0.06 0.05 0.04 0.04 0.06 0.08 0.07 0.08 0.06 0.04 0.03 0.02 0.02 0.01 0.01 0.01 0.02 0.01 0.01 0.01 0.02 0.02 0.03 0.03 0.03 0.02 0.02 0.03 0.03 0.02 0.02 0.02 0.02 0.03 0.03 0.03 0.04 0.03
0.07 0.08 0.09 0.07 0.06 0.05 0.04 0.04 0.04 0.04 0.05 0.06 0.07 0.05 0.04 0.04 0.03 0.02 0.02 0.02 0.02 0.02 0.02 0.02 0.02 0.02 0.03 0.02 0.02 0.02 0.02 0.02 0.02 0.02 0.03 0.03 0.03 0.03 0.03 0.03 0.03 0.03 0.04
0.06 0.07 0.08 0.09 0.07 0.06 0.06 0.09 0.09 0.06 0.06 0.06 0.07 0.06 0.04 0.03 0.03 0.03 0.03 0.03 0.03 0.03 0.03 0.04 0.04 0.04 0.04 0.04 0.04 0.03 0.03 0.03 0.03 0.03 0.03 0.04 0.05 0.05 0.04 0.04 0.04 0.04 0.04
0.05 0.07 0.08 0.09 0.10 0.11 0.07 0.07 0.09 0.12 0.13 0.10 0.07 0.06 0.06 0.04 0.04 0.04 0.04 0.04 0.04 0.04 0.04 0.06 0.06 0.06 0.06 0.06 0.05 0.04 0.04 0.04 0.05 0.05 0.05 0.04 0.03 0.03 0.04 0.04 0.03 0.03 0.03
0.05 0.06 0.06 0.05 0.03 0.04 0.03 0.04 0.04 0.05 0.08 0.08 0.06 0.06 0.06 0.05 0.05 0.04 0.05 0.06 0.07 0.07 0.06 0.06 0.06 0.07 0.07 0.07 0.07 0.06 0.05 0.04 0.04 0.04 0.04 0.03 0.03 0.03 0.03 0.03 0.04 0.03 0.03
0.04 0.04 0.04 0.03 0.03 0.03 0.02 0.02 0.02 0.02 0.05 0.06 0.05 0.04 0.04 0.03 0.03 0.03 0.04 0.04 0.06 0.08 0.09 0.08 0.08 0.08 0.08 0.07 0.07 0.06 0.05 0.04 0.03 0.03 0.03 0.03 0.03 0.02 0.02 0.02 0.04 0.05 0.04
0.02 0.03 0.03 0.03 0.04 0.04 0.03 0.02 0.02 0.02 0.03 0.04 0.03 0.02 0.02 0.01 0.01 0.01 0.02 0.03 0.04 0.05 0.05 0.06 0.07 0.06 0.06 0.05 0.04 0.03 0.03 0.03 0.02 0.03 0.03 0.03 0.03 0.03 0.03 0.03 0.03 0.04 0.04
0.02 0.02 0.03 0.03 0.02 0.03 0.03 0.03 0.02 0.02 0.02 0.03 0.03 0.02 0.01 0.01 0.01 0.00 0.01 0.01 0.02 0.03 0.03 0.03 0.04 0.03 0.03 0.03 0.03 0.02 0.02 0.03 0.03 0.02 0.03 0.03 0.03 0.03 0.03 0.02 0.02 0.02 0.02
0.02 0.02 0.02 0.02 0.03 0.03 0.02 0.02 0.01 0.01 0.02 0.03 0.03 0.02 0.01 0.01 0.01 0.01 0.01 0.01 0.01 0.01 0.01 0.02 0.03 0.03 0.03 0.03 0.02 0.02 0.02 0.03 0.02 0.02 0.01 0.01 0.02 0.02 0.02 0.02 0.02 0.02 0.02
0.02 0.02 0.03 0.03 0.03 0.03 0.02 0.02 0.01 0.01 0.02 0.03 0.04 0.03 0.02 0.02 0.01 0.01 0.01 0.01 0.00 0.01 0.01 0.01 0.01 0.01 0.02 0.02 0.02 0.02 0.02 0.01 0.01 0.01 0.01 0.01 0.01 0.01 0.02 0.02 0.01 0.01 0.01
MSLP
1000.02 999.61 999.40 999.39 999.57 999.93 1000.42 1001.01 1001.67 1002.36 1003.05 1003.72 1004.33 1004.88 1005.37 1005.81 1006.21 1006.60 1006.99 1007.39 1007.82 1008.27 1008.75 1009.24 1009.74 1010.23 1010.70 1011.14 1011.54 1011.90 1012.20 1012.44 1012.61 1012.70 1012.71 1012.65 1012.54 1012.40 1012.27 1012.16 1012.12 1012.15 1012.26
1000.44 999.99 999.71 999.60 999.68 999.93 1000.31 1000.80 1001.37 1001.98 1002.60 1003.21 1003.77 1004.29 1004.75 1005.18 1005.58 1005.97 1006.35 1006.76 1007.18 1007.63 1008.09 1008.56 1009.04 1009.52 1009.99 1010.45 1010.90 1011.31 1011.69 1012.01 1012.27 1012.44 1012.53 1012.53 1012.46 1012.35 1012.22 1012.11 1012.04 1012.04 1012.12
1000.89 1000.43 1000.11 999.94 999.93 1000.06 1000.32 1000.69 1001.14 1001.64 1002.16 1002.68 1003.18 1003.64 1004.08 1004.49 1004.89 1005.28 1005.69 1006.10 1006.54 1006.99 1007.44 1007.91 1008.38 1008.85 1009.32 1009.80 1010.27 1010.73 1011.16 1011.56 1011.89 1012.14 1012.31 1012.38 1012.37 1012.29 1012.19 1012.09 1012.02 1012.01 1012.07
1001.32 1000.90 1000.58 1000.36 1000.27 1000.29 1000.43 1000.66 1000.97 1001.34 1001.74 1002.16 1002.57 1002.98 1003.37 1003.76 1004.16 1004.57 1004.99 1005.42 1005.87 1006.33 1006.79 1007.25 1007.71 1008.18 1008.65 1009.13 1009.62 1010.11 1010.59 1011.04 1011.43 1011.76 1012.00 1012.14 1012.20 1012.18 1012.13 1012.06 1012.01 1012.01 1012.07
1001.75 1001.38 1001.06 1000.82 1000.66 1000.59 1000.61 1000.71 1000.88 1001.11 1001.38 1001.68 1002.00 1002.34 1002.68 1003.05 1003.43 1003.84 1004.27 1004.71 1005.17 1005.64 1006.10 1006.55 1007.00 1007.46 1007.92 1008.40 1008.90 1009.41 1009.92 1010.42 1010.88 1011.27 1011.58 1011.80 1011.93 1011.99 1011.99 1011.98 1011.98 1012.00 1012.08
1002.16 1001.84 1001.55 1001.30 1001.09 1000.95 1000.86 1000.85 1000.89 1000.99 1001.14 1001.33 1001.55 1001.80 1002.08 1002.40 1002.76 1003.14 1003.56 1004.00 1004.45 1004.90 1005.34 1005.78 1006.22 1006.66 1007.11 1007.58 1008.09 1008.62 1009.16 1009.70 1010.21 1010.67 1011.06 1011.35 1011.56 1011.70 1011.78 1011.84 1011.89 1011.96 1012.08
1002.58 1002.31 1002.05 1001.79 1001.56 1001.36 1001.20 1001.09 1001.03 1001.03 1001.07 1001.15 1001.28 1001.44 1001.65 1001.90 1002.20 1002.54 1002.91 1003.31 1003.72 1004.13 1004.54 1004.95 1005.36 1005.77 1006.21 1006.68 1007.19 1007.74 1008.32 1008.90 1009.47 1010.00 1010.46 1010.83 1011.13 1011.34 1011.51 1011.63 1011.75 1011.88 1012.04
1003.00 1002.78 1002.54 1002.29 1002.05 1001.82 1001.62 1001.46 1001.33 1001.25 1001.20 1001.20 1001.23 1001.31 1001.43 1001.59 1001.81 1002.06 1002.36 1002.68 1003.02 1003.37 1003.72 1004.08 1004.44 1004.83 1005.25 1005.73 1006.25 1006.83 1007.44 1008.08 1008.71 1009.31 1009.84 1010.30 1010.67 1010.97 1011.20 1011.40 1011.59 1011.78 1011.99
1003.41 1003.22 1003.00 1002.78 1002.55 1002.32 1002.11 1001.93 1001.77 1001.63 1001.53 1001.45 1001.41 1001.39 1001.42 1001.48 1001.59 1001.74 1001.93 1002.15 1002.39 1002.65 1002.93 1003.22 1003.54 1003.90 1004.31 1004.79 1005.33 1005.95 1006.62 1007.31 1008.01 1008.67 1009.28 1009.81 1010.25 1010.62 1010.92 1011.18 1011.43 1011.67 1011.92
1003.78 1003.60 1003.41 1003.21 1003.01 1002.81 1002.62 1002.44 1002.27 1002.12 1001.98 1001.85 1001.73 1001.64 1001.56 1001.52 1001.51 1001.54 1001.60 1001.71 1001.84 1002.00 1002.20 1002.42 1002.70 1003.03 1003.44 1003.94 1004.52 1005.18 1005.90 1006.66 1007.42 1008.15 1008.82 1009.41 1009.92 1010.34 1010.69 1011.00 1011.29 1011.57 1011.86
1004.07 1003.90 1003.73 1003.56 1003.39 1003.23 1003.07 1002.92 1002.77 1002.61 1002.45 1002.28 1002.10 1001.92 1001.76 1001.61 1001.48 1001.40 1001.35 1001.34 1001.37 1001.44 1001.56 1001.74 1001.98 1002.30 1002.72 1003.24 1003.86 1004.57 1005.35 1006.17 1006.99 1007.78 1008.50 1009.14 1009.69 1010.15 1010.53 1010.87 1011.18 1011.49 1011.81
1004.25 1004.08 1003.93 1003.78 1003.65 1003.53 1003.41 1003.29 1003.16 1003.00 1002.82 1002.61 1002.38 1002.14 1001.89 1001.65 1001.43 1001.24 1001.10 1001.00 1000.96 1000.97 1001.05 1001.20 1001.43 1001.76 1002.19 1002.74 1003.41 1004.16 1004.99 1005.87 1006.74 1007.57 1008.33 1009.00 1009.57 1010.05 1010.44 1010.79 1011.11 1011.43 1011.76
1004.31 1004.15 1004.01 1003.88 1003.78 1003.68 1003.59 1003.49 1003.37 1003.21 1003.01 1002.76 1002.48 1002.17 1001.86 1001.55 1001.27 1001.02 1000.82 1000.68 1000.61 1000.60 1000.66 1000.81 1001.06 1001.41 1001.88 1002.47 1003.18 1003.98 1004.85 1005.75 1006.65 1007.51 1008.29 1008.98 1009.55 1010.03 1010.42 1010.76 1011.07 1011.39 1011.72
1004.29 1004.13 1003.99 1003.88 1003.79 1003.71 1003.63 1003.52 1003.39 1003.20 1002.97 1002.68 1002.35 1002.00 1001.64 1001.29 1000.98 1000.72 1000.51 1000.37 1000.31 1000.33 1000.43 1000.61 1000.90 1001.30 1001.81 1002.44 1003.18 1004.01 1004.90 1005.82 1006.73 1007.59 1008.37 1009.05 1009.62 1010.08 1010.46 1010.78 1011.08 1011.37 1011.69
1004.25 1004.08 1003.94 1003.83 1003.74 1003.65 1003.56 1003.43 1003.26 1003.04 1002.76 1002.43 1002.05 1001.66 1001.28 1000.93 1000.62 1000.38 1000.21 1000.12 1000.12 1000.20 1000.37 1000.63 1000.98 1001.43 1001.98 1002.64 1003.40 1004.24 1005.14 1006.05 1006.95 1007.80 1008.56 1009.22 1009.76 1010.20 1010.56 1010.86 1011.13 1011.40 1011.69
1004.24 1004.07 1003.93 1003.81 1003.71 1003.61 1003.48 1003.32 1003.10 1002.83 1002.49 1002.11 1001.71 1001.29 1000.91 1000.57 1000.30 1000.11 1000.02 1000.02 1000.11 1000.29 1000.55 1000.89 1001.31 1001.81 1002.41 1003.09 1003.85 1004.68 1005.55 1006.44 1007.30 1008.12 1008.84 1009.47 1009.99 1010.40 1010.73 1011.00 1011.25 1011.48 1011.74
1004.33 1004.16 1004.03 1003.91 1003.79 1003.67 1003.51 1003.31 1003.04 1002.72 1002.34 1001.92 1001.48 1001.07 1000.69 1000.39 1000.18 1000.07 1000.07 1000.17 1000.37 1000.65 1001.00 1001.43 1001.91 1002.46 1003.08 1003.76 1004.51 1005.31 1006.13 1006.97 1007.78 1008.54 1009.22 1009.81 1010.30 1010.69 1010.99 1011.24 1011.45 1011.66 1011.86
1004.52 1004.38 1004.26 1004.15 1004.04 1003.90 1003.73 1003.49 1003.20 1002.84 1002.42 1001.98 1001.54 1001.14 1000.80 1000.55 1000.40 1000.38 1000.47 1000.67 1000.97 1001.34 1001.77 1002.26 1002.79 1003.36 1003.98 1004.64 1005.35 1006.09 1006.85 1007.62 1008.36 1009.06 1009.69 1010.24 1010.69 1011.05 1011.34 1011.56 1011.75 1011.91 1012.08
1004.79 1004.69 1004.61 1004.53 1004.44 1004.32 1004.15 1003.92 1003.62 1003.25 1002.84 1002.41 1001.99 1001.61 1001.32 1001.12 1001.05 1001.10 1001.28 1001.56 1001.93 1002.37 1002.85 1003.37 1003.92 1004.48 1005.08 1005.69 1006.34 1007.00 1007.69 1008.37 1009.04 1009.66 1010.23 1010.73 1011.15 1011.48 1011.74 1011.95 1012.11 1012.25 1012.37
1005.10 1005.05 1005.02 1005.00 1004.96 1004.89 1004.76 1004.56 1004.30 1003.97 1003.59 1003.20 1002.82 1002.50 1002.26 1002.13 1002.12 1002.23 1002.46 1002.79 1003.21 1003.67 1004.17 1004.69 1005.22 1005.75 1006.29 1006.84 1007.41 1007.99 1008.58 1009.17 1009.75 1010.30 1010.81 1011.25 1011.63 1011.93 1012.18 1012.36 1012.50 1012.61 1012.70
1005.38 1005.39 1005.43 1005.48 1005.52 1005.52 1005.47 1005.34 1005.14 1004.88 1004.58 1004.26 1003.96 1003.70 1003.53 1003.45 1003.49 1003.65 1003.91 1004.26 1004.68 1005.15 1005.63 1006.11 1006.60 1007.07 1007.54 1008.01 1008.49 1008.98 1009.47 1009.97 1010.46 1010.93 1011.37 1011.76 1012.09 1012.36 1012.58 1012.75 1012.87 1012.96 1013.02
1005.56 1005.65 1005.77 1005.90 1006.03 1006.12 1006.16 1006.13 1006.03 1005.87 1005.67 1005.44 1005.22 1005.05 1004.95 1004.93 1005.01 1005.19 1005.46 1005.81 1006.20 1006.63 1007.07 1007.50 1007.92 1008.32 1008.72 1009.11 1009.50 1009.89 1010.29 1010.70 1011.11 1011.50 1011.87 1012.20 1012.48 1012.72 1012.91 1013.06 1013.16 1013.24 1013.29
1005.64 1005.79 1005.98 1006.19 1006.40 1006.59 1006.73 1006.81 1006.82 1006.77 1006.68 1006.56 1006.44 1006.35 1006.32 1006.35 1006.46 1006.65 1006.91 1007.23 1007.59 1007.97 1008.35 1008.72 1009.07 1009.40 1009.73 1010.04 1010.35 1010.67 1010.99 1011.32 1011.65 1011.97 1012.27 1012.54 1012.77 1012.97 1013.13 1013.26 1013.35 1013.41 1013.46
1005.65 1005.84 1006.09 1006.36 1006.64 1006.91 1007.13 1007.31 1007.42 1007.48 1007.49 1007.47 1007.45 1007.44 1007.47 1007.55 1007.68 1007.87 1008.12 1008.40 1008.72 1009.04 1009.36 1009.67 1009.97 1010.24 1010.51 1010.77 1011.03 1011.29 1011.55 1011.82 1012.08 1012.34 1012.57 1012.79 1012.97 1013.13 1013.25 1013.35 1013.43 1013.48 1013.52
1005.66 1005.88 1006.15 1006.46 1006.78 1007.09 1007.38 1007.62 1007.81 1007.96 1008.05 1008.12 1008.18 1008.24 1008.32 1008.43 1008.58 1008.77 1008.99 1009.25 1009.52 1009.80 1010.07 1010.34 1010.60 1010.84 1011.07 1011.30 1011.53 1011.75 1011.98 1012.20 1012.42 1012.62 1012.81 1012.97 1013.10 1013.21 1013.30 1013.37 1013.43 1013.47 1013.51
1005.75 1005.97 1006.24 1006.55 1006.88 1007.22 1007.53 1007.80 1008.04 1008.24 1008.40 1008.52 1008.64 1008.74 1008.86 1008.99 1009.15 1009.34 1009.55 1009.78 1010.02 1010.27 1010.52 1010.76 1010.99 1011.22 1011.45 1011.67 1011.89 1012.10 1012.31 1012.52 1012.70 1012.87 1013.01 1013.13 1013.22 1013.28 1013.33 1013.37 1013.40 1013.43 1013.47
Thickness
5724 5722 5720 5719 5718 5717 5715 5714 5713 5712 5710 5709 5707 5706 5704 5704 5703 5701 5700 5699 5697 5695 5694 5692 5690 5689 5688 5688 5687 5685 5684 5682 5679 5681 5683 5685 5686 5686 5686 5686 5685 5685 5684
5719 5717 5714 5713 5712 5710 5709 5708 5707 5705 5704 5703 5702 5701 5700 5699 5698 5696 5695 5694 5692 5690 5689 5687 5686 5685 5683 5682 5681 5680 5678 5678 5676 5674 5676 5677 5678 5680 5680 5679 5679 5679 5678
5712 5710 5708 5707 5705 5704 5703 5702 5701 5699 5698 5698 5697 5695 5695 5694 5693 5691 5690 5689 5687 5686 5684 5682 5681 5679 5677 5676 5675 5674 5673 5673 5672 5670 5669 5670 5671 5673 5672 5672 5673 5672 5673
5706 5704 5702 5701 5699 5698 5697 5696 5695 5693 5692 5691 5691 5690 5690 5688 5687 5686 5685 5683 5682 5681 5680 5679 5677 5675 5673 5671 5670 5668 5668 5666 5664 5663 5662 5663 5663 5665 5665 5664 5664 5665 5666
5700 5697 5696 5695 5694 5692 5690 5689 5688 5686 5685 5685 5685 5685 5684 5682 5682 5681 5680 5678 5676 5675 5674 5674 5673 5672 5670 5668 5666 5663 5662 5659 5657 5655 5655 5655 5655 5656 5656 5657 5657 5658 5659
5694 5692 5690 5689 5687 5685 5683 5682 5680 5679 5679 5678 5678 5678 5678 5679 5678 5676 5675 5673 5671 5669 5668 5667 5667 5666 5665 5664 5663 5661 5658 5655 5651 5649 5648 5648 5649 5650 5651 5651 5649 5648 5649
5687 5685 5684 5682 5680 5678 5677 5676 5673 5672 5671 5668 5671 5672 5672 5671 5671 5670 5669 5667 5665 5664 5663 5662 5662 5662 5660 5658 5657 5655 5653 5652 5650 5647 5645 5645 5645 5646 5645 5644 5643 5642 5643
5680 5678 5677 5675 5673 5672 5670 5669 5667 5666 5665 5664 5665 5665 5664 5664 5664 5664 5663 5661 5660 5659 5658 5657 5656 5655 5654 5652 5650 5648 5646 5645 5645 5644 5643 5643 5643 5643 5641 5640 5638 5637 5637
5673 5671 5671 5670 5667 5665 5663 5662 5662 5660 5659 5658 5658 5658 5657 5656 5656 5656 5656 5654 5653 5652 5653 5652 5652 5650 5649 5647 5644 5641 5639 5639 5640 5639 5639 5639 5639 5638 5636 5633 5630 5628 5627
5666 5666 5665 5664 5661 5659 5658 5656 5656 5654 5653 5653 5652 5652 5651 5650 5650 5650 5649 5647 5645 5645 5645 5646 5646 5645 5643 5641 5638 5635 5633 5633 5633 5632 5632 5632 5632 5631 5631 5628 5626 5622 5620
5659 5659 5658 5656 5655 5653 5651 5650 5650 5649 5647 5646 5644 5645 5645 5645 5644 5644 5642 5640 5639 5638 5638 5637 5638 5638 5636 5635 5633 5630 5629 5628 5626 5625 5624 5624 5624 5624 5624 5624 5622 5619 5616
5652 5651 5650 5649 5649 5648 5645 5643 5643 5641 5640 5639 5637 5637 5637 5637 5638 5638 5637 5635 5635 5632 5631 5631 5631 5631 5629 5628 5626 5625 5624 5622 5619 5618 5617 5616 5616 5616 5617 5617 5616 5615 5615
5644 5642 5642 5642 5641 5640 5638 5636 5635 5634 5632 5631 5629 5629 5629 5630 5631 5631 5630 5630 5629 5627 5626 5626 5625 5624 5623 5621 5620 5619 5617 5616 5614 5612 5611 5610 5610 5611 5611 5610 5611 5610 5610
5635 5634 5633 5633 5632 5631 5630 5629 5628 5627 5625 5624 5623 5623 5623 5623 5623 5624 5624 5623 5622 5620 5619 5618 5618 5617 5616 5615 5614 5612 5611 5610 5608 5607 5606 5605 5604 5604 5603 5603 5603 5603 5602
5626 5625 5625 5624 5623 5622 5622 5622 5621 5621 5621 5621 5620 5619 5618 5617 5619 5619 5618 5617 5615 5614 5612 5610 5609 5608 5607 5606 5606 5605 5605 5603 5602 5601 5599 5598 5598 5597 5597 5597 5597 5596 5595
5617 5616 5615 5614 5615 5614 5614 5614 5615 5615 5617 5617 5616 5615 5615 5615 5615 5614 5613 5612 5610 5608 5604 5602 5601 5600 5600 5599 5599 5598 5597 5597 5596 5595 5594 5593 5592 5591 5591 5591 5590 5590 5589
5608 5608 5607 5607 5607 5606 5606 5606 5606 5608 5610 5610 5610 5610 5609 5608 5607 5607 5606 5604 5602 5600 5597 5596 5595 5594 5593 5593 5592 5591 5591 5591 5590 5589 5587 5587 5586 5585 5584 5584 5584 5583 5583
5601 5601 5600 5599 5599 5599 5599 5600 5600 5600 5601 5602 5603 5603 5602 5601 5600 5599 5598 5596 5593 5591 5590 5589 5589 5588 5587 5586 5585 5585 5585 5585 5583 5582 5580 5580 5579 5578 5578 5577 5577 5577 5577
5594 5593 5593 5592 5592 5592 5593 5593 5594 5594 5594 5594 5594 5595 5595 5594 5593 5591 5590 5587 5587 5586 5585 5584 5583 5582 5581 5580 5580 5579 5578 5577 5576 5575 5574 5573 5572 5571 5571 5571 5571 5571 5570
5587 5587 5587 5586 5586 5586 5587 5587 5587 5587 5587 5586 5586 5586 5586 5585 5584 5582 5581 5580 5580 5579 5578 5577 5576 5575 5575 5574 5573 5572 5570 5569 5568 5567 5566 5566 5565 5565 5564 5564 5564 5564 5563
5581 5580 5581 5580 5579 5580 5580 5581 5581 5580 5580 5579 5579 5580 5579 5577 5576 5575 5574 5573 5572 5571 5571 5570 5569 5567 5567 5566 5565 5564 5563 5561 5561 5560 5559 5559 5558 5558 5558 5558 5557 5557 5557
5575 5575 5574 5574 5574 5574 5575 5575 5575 5575 5575 5574 5573 5573 5573 5571 5569 5568 5568 5567 5566 5565 5564 5563 5562 5561 5560 5559 5558 5558 5556 5555 5554 5553 5552 5552 5552 5551 5551 5550 5550 5549 5549
5570 5570 5570 5569 5569 5569 5569 5569 5569 5569 5569 5569 5568 5566 5565 5563 5563 5562 5562 5561 5559 5558 5557 5556 5555 5553 5553 5552 5551 5550 5549 5548 5548 5547 5546 5546 5545 5544 5543 5543 5542 5542 5542
5565 5565 5564 5563 5563 5563 5563 5563 5563 5563 5563 5562 5561 5560 5559 5558 5557 5556 5555 5554 5553 5552 5551 5550 5548 5547 5546 5545 5545 5544 5543 5543 5542 5541 5540 5539 5538 5538 5537 5536 5535 5535 5534
5559 5558 5557 5557 5557 5556 5556 5556 5556 5556 5556 5555 5554 5553 5553 5552 5550 5549 5548 5547 5547 5545 5544 5543 5542 5541 5540 5539 5538 5537 5537 5536 5535 5534 5533 5532 5531 5531 5530 5529 5529 5528 5528
5552 5552 5551 5550 5550 5550 5550 5549 5548 5548 5548 5548 5547 5546 5546 5544 5543 5542 5541 5540 5539 5538 5537 5536 5535 5534 5533 5532 5531 5530 5530 5529 5528 5528 5527 5526 5524 5523 5523 5522 5522 5521 5521